When you browse on this site, cookies collect data to enhance your experience and personalize the content and advertising you see.
Visit our Privacy Policy to learn more. By continuing to use the site, you agree to this use of cookies and data.

Hourly Weather Kalgoorlie

Today, 14 July, Tuesday

Time Temperature Precipitation Wind Pressure Humidity
00:00 +11°C° 0 mm 6 mps 729 mmHg 23%
01:00 +11°C° 0 mm 6 mps 729 mmHg 24%
02:00 +11°C° 0 mm 6 mps 728 mmHg 24%
03:00 +11°C° 0 mm 7 mps 728 mmHg 24%
04:00 +10°C° 0 mm 7 mps 728 mmHg 23%
05:00 +10°C° 0 mm 7 mps 727 mmHg 23%
06:00 +11°C° 0 mm 8 mps 727 mmHg 23%
07:00 +11°C° 0 mm 8 mps 727 mmHg 22%
08:00 +12°C° 0 mm 8 mps 727 mmHg 22%
09:00 +13°C° 0 mm 10 mps 728 mmHg 29%
10:00 +16°C° 0 mm 11 mps 728 mmHg 37%
11:00 +18°C° 0 mm 12 mps 728 mmHg 45%
12:00 +16°C° 0.2 mm 11 mps 728 mmHg 51%
13:00 +15°C° 0.2 mm 9 mps 728 mmHg 58%
14:00 +12°C° 0.2 mm 8 mps 728 mmHg 64%
15:00 +12°C° 0 mm 7 mps 728 mmHg 64%
16:00 +13°C° 0 mm 6 mps 729 mmHg 63%
17:00 +13°C° 0 mm 5 mps 729 mmHg 63%
18:00 +12°C° 0 mm 4 mps 730 mmHg 65%
19:00 +11°C° 0 mm 4 mps 730 mmHg 67%
20:00 +11°C° 0 mm 3 mps 730 mmHg 70%
21:00 +10°C° 0 mm 3 mps 731 mmHg 70%
22:00 +10°C° 0 mm 3 mps 731 mmHg 69%
23:00 +9°C° 0 mm 3 mps 731 mmHg 69%

Tomorrow, 15 July, Wednesday

Time Temperature Precipitation Wind Pressure Humidity
00:00 +9°C° 0 mm 2 mps 731 mmHg 70%
01:00 +8°C° 0 mm 2 mps 731 mmHg 70%
02:00 +8°C° 0 mm 2 mps 731 mmHg 71%
03:00 +8°C° 0 mm 1 mps 731 mmHg 72%
04:00 +8°C° 0 mm 1 mps 731 mmHg 74%
05:00 +7°C° 0 mm 1 mps 731 mmHg 76%
06:00 +8°C° 0 mm 1 mps 731 mmHg 72%
07:00 +9°C° 0 mm 1 mps 732 mmHg 69%
08:00 +10°C° 0 mm 1 mps 732 mmHg 66%
09:00 +12°C° 0 mm 2 mps 732 mmHg 60%
10:00 +13°C° 0 mm 3 mps 732 mmHg 55%
11:00 +15°C° 0 mm 4 mps 732 mmHg 49%
12:00 +16°C° 0 mm 5 mps 731 mmHg 48%
13:00 +17°C° 0 mm 5 mps 731 mmHg 46%
14:00 +19°C° 0 mm 6 mps 730 mmHg 45%
15:00 +17°C° 0 mm 5 mps 730 mmHg 47%
16:00 +17°C° 0 mm 3 mps 730 mmHg 49%
17:00 +17°C° 0 mm 2 mps 730 mmHg 51%
18:00 +16°C° 0 mm 2 mps 730 mmHg 53%
19:00 +16°C° 0 mm 2 mps 730 mmHg 55%
20:00 +15°C° 0 mm 2 mps 730 mmHg 57%
21:00 +14°C° 0 mm 3 mps 730 mmHg 56%
22:00 +14°C° 0 mm 3 mps 730 mmHg 56%
23:00 +14°C° 0 mm 3 mps 730 mmHg 56%

Day after tomorrow, 16 July, Thursday

Time Temperature Precipitation Wind Pressure Humidity
00:00 +13°C° 0 mm 3 mps 730 mmHg 59%
01:00 +13°C° 0 mm 4 mps 729 mmHg 61%
02:00 +13°C° 0 mm 4 mps 729 mmHg 63%
03:00 +12°C° 0 mm 4 mps 729 mmHg 64%
04:00 +12°C° 0 mm 3 mps 729 mmHg 66%
05:00 +12°C° 0 mm 3 mps 729 mmHg 67%
06:00 +12°C° 0 mm 4 mps 729 mmHg 65%
07:00 +13°C° 0 mm 4 mps 730 mmHg 64%
08:00 +13°C° 0 mm 4 mps 730 mmHg 63%
09:00 +16°C° 0 mm 6 mps 730 mmHg 56%
10:00 +20°C° 0 mm 7 mps 730 mmHg 50%
11:00 +22°C° 0 mm 8 mps 730 mmHg 43%
12:00 +23°C° 0 mm 8 mps 729 mmHg 39%
13:00 +24°C° 0 mm 8 mps 728 mmHg 35%
14:00 +26°C° 0 mm 9 mps 728 mmHg 31%
15:00 +24°C° 0 mm 7 mps 727 mmHg 31%
16:00 +23°C° 0 mm 6 mps 727 mmHg 31%
17:00 +23°C° 0 mm 5 mps 727 mmHg 31%
18:00 +22°C° 0 mm 5 mps 727 mmHg 33%
19:00 +21°C° 0 mm 5 mps 727 mmHg 35%
20:00 +20°C° 0 mm 6 mps 728 mmHg 37%
21:00 +18°C° 0 mm 4 mps 727 mmHg 51%
22:00 +17°C° 0 mm 3 mps 727 mmHg 65%
23:00 +15°C° 0 mm 2 mps 727 mmHg 79%

17 July, Friday

Time Temperature Precipitation Wind Pressure Humidity
00:00 +16°C° 0 mm 2 mps 727 mmHg 78%
01:00 +16°C° 0 mm 3 mps 727 mmHg 77%
02:00 +16°C° 0 mm 3 mps 726 mmHg 76%
03:00 +15°C° 0.5 mm 4 mps 726 mmHg 79%
04:00 +14°C° 0.5 mm 5 mps 726 mmHg 82%
05:00 +14°C° 0.5 mm 6 mps 726 mmHg 85%
06:00 +14°C° 0.3 mm 6 mps 726 mmHg 83%
07:00 +14°C° 0.3 mm 7 mps 726 mmHg 81%
08:00 +15°C° 0.3 mm 8 mps 726 mmHg 79%
09:00 +14°C° 1.8 mm 7 mps 726 mmHg 77%
10:00 +12°C° 1.8 mm 7 mps 727 mmHg 76%
11:00 +12°C° 1.8 mm 7 mps 727 mmHg 74%
12:00 +12°C° 0.3 mm 7 mps 727 mmHg 72%
13:00 +12°C° 0.3 mm 7 mps 727 mmHg 70%
14:00 +12°C° 0.3 mm 7 mps 727 mmHg 68%
15:00 +13°C° 0.1 mm 6 mps 727 mmHg 65%
16:00 +13°C° 0.1 mm 6 mps 728 mmHg 62%
17:00 +12°C° 0.1 mm 5 mps 728 mmHg 59%
18:00 +10°C° 0 mm 5 mps 729 mmHg 61%
19:00 +9°C° 0 mm 5 mps 729 mmHg 63%
20:00 +8°C° 0 mm 5 mps 730 mmHg 65%
21:00 +8°C° 0 mm 5 mps 730 mmHg 68%
22:00 +7°C° 0 mm 4 mps 731 mmHg 71%
23:00 +7°C° 0 mm 4 mps 731 mmHg 73%

18 July, Saturday

Time Temperature Precipitation Wind Pressure Humidity
00:00 +6°C° 0 mm 4 mps 731 mmHg 75%
01:00 +7°C° 0 mm 3 mps 731 mmHg 76%
02:00 +5°C° 0 mm 3 mps 732 mmHg 78%
03:00 +5°C° 0 mm 3 mps 732 mmHg 78%
04:00 +5°C° 0 mm 3 mps 732 mmHg 79%
05:00 +4°C° 0 mm 3 mps 732 mmHg 80%
06:00 +5°C° 0 mm 3 mps 732 mmHg 78%
07:00 +5°C° 0 mm 3 mps 733 mmHg 77%
08:00 +5°C° 0 mm 4 mps 733 mmHg 75%
09:00 +7°C° 0 mm 4 mps 733 mmHg 66%
10:00 +10°C° 0 mm 4 mps 734 mmHg 58%
11:00 +12°C° 0 mm 4 mps 734 mmHg 49%
12:00 +12°C° 0 mm 4 mps 733 mmHg 47%
13:00 +13°C° 0 mm 4 mps 733 mmHg 44%
14:00 +14°C° 0 mm 5 mps 732 mmHg 42%
15:00 +13°C° 0 mm 4 mps 733 mmHg 45%
16:00 +13°C° 0 mm 4 mps 733 mmHg 48%
17:00 +13°C° 0 mm 3 mps 733 mmHg 51%
18:00 +12°C° 0 mm 3 mps 733 mmHg 54%
19:00 +11°C° 0 mm 3 mps 734 mmHg 57%
20:00 +10°C° 0 mm 3 mps 734 mmHg 61%
21:00 +10°C° 0 mm 3 mps 734 mmHg 64%
22:00 +9°C° 0 mm 3 mps 734 mmHg 68%
23:00 +9°C° 0 mm 3 mps 734 mmHg 71%

19 July, Sunday

Time Temperature Precipitation Wind Pressure Humidity
00:00 +9°C° 0 mm 3 mps 734 mmHg 74%
01:00 +8°C° 0 mm 3 mps 734 mmHg 77%
02:00 +8°C° 0 mm 3 mps 734 mmHg 80%
03:00 +8°C° 0 mm 3 mps 734 mmHg 83%
04:00 +8°C° 0 mm 3 mps 735 mmHg 86%
05:00 +7°C° 0 mm 3 mps 735 mmHg 89%
06:00 +8°C° 0 mm 3 mps 735 mmHg 88%
07:00 +8°C° 0 mm 3 mps 736 mmHg 87%
08:00 +8°C° 0 mm 3 mps 736 mmHg 86%
09:00 +10°C° 0 mm 3 mps 736 mmHg 77%
10:00 +12°C° 0 mm 4 mps 736 mmHg 68%
11:00 +13°C° 0 mm 4 mps 736 mmHg 60%
12:00 +13°C° 0 mm 4 mps 736 mmHg 57%
13:00 +14°C° 0 mm 4 mps 735 mmHg 55%
14:00 +14°C° 0 mm 4 mps 735 mmHg 52%
15:00 +14°C° 0 mm 4 mps 735 mmHg 52%
16:00 +13°C° 0 mm 3 mps 736 mmHg 53%
17:00 +13°C° 0 mm 3 mps 736 mmHg 53%
18:00 +12°C° 0 mm 3 mps 736 mmHg 55%
19:00 +13°C° 0 mm 2 mps 737 mmHg 57%
20:00 +13°C° 0 mm 2 mps 737 mmHg 59%
21:00 +11°C° 0 mm 3 mps 737 mmHg 63%
22:00 +11°C° 0 mm 4 mps 737 mmHg 67%
23:00 +10°C° 0 mm 4 mps 738 mmHg 71%
Show more